Probability
0 0 0 0 0 0 0 0 0 0 0 0 0 0 0 0 0 0 0 0 0 0 0 0 0 0 0 0 0 0 0 0 0 0 0 0 0 0 0 0 0 0 0
0 0 0 0 0 0 0 0 0 0 0 0 0 0 0 0 0 0 0 0 0 0 0 0 0 0 0 0 0 0 0 0 0 0 0 0 0 0 0 0 0 0 0
0 0 0 0 0 0 0 0 0 0 0 0 0 0 0 0 0 0 0 0 0 0 0 0 0 0 0 0 0 0 0 0 0 0 0 0 0 0 0 0 0 0 0
0 0 0 0 0 0 0 0 0 0 0 0 0 0 0 0 0 0 0 0 0 0 0 0 0 0 0 0 0 0 0 0 0 0 0 0 0 0 0 0 0 0 0
0 0 0 0 0 0 0 0 0 0 0 0 0 0 0 0 0 0 0 0 0 0 0 0 0 0 0 0 0 0 0 0 0 0 0 0 0 0 0 0 0 0 0
0 0 0 0 0 0 0 0 0 0 0 0 0 0 0 0 0 0 0 0 0 0 0 0 0 0 0 0 0 0 0 0 0 0 0 0 0 0 0 0 0 0 0
0 0 0 0 0 0 0 0 0 0 0 0 0 0 0 0 0 0 0 0 0 0 0 0 0 0 0 0 0 0 0 0 0 0 0 0 0 0 0 0 0 0 0
0 0 0 0 0 0 0 0 0 0 0 0 0 0 0 0 0 0 0 0 0 0 0 0 0 0 0 0 0 0 0 0 0 0 0 0 0 0 0 0 0 0 0
0 0 0 0 0 0 0 0 0 0 0 0 0 0 0 0 0 0 0 0 0 0 0 0 0 0 0 0 0 0 0 0 0 0 0 0 0 0 0 0 0 0 0
0 0 0 0 0 0 0 0 0 0 0 0 0 0 0 0 0 0 0 0 0 0 0 0 0 0 0 0 0 0 0 0 0 0 0 0 0 0 0 0 0 0 0
0 0 0 0 0 0 0 0 0 0 0 0 0 0 0 0 0 0 0 0 0 0 0 0 0 0 0 0 0 0 0 0 0 0 0 0 0 0 0 0 0 0 0
0 0 0 0 0 0 0 0 0 0 0 0 0 0 0 0 0 0 0 0 0 0 0 0 0 0 0 0 0 0 0 0 0 0 0 0 0 0 0 0 0 0 0
0 0 0 0 0 0 0 0 0 0 0 0 0 0 0 0 0 0 0 0 0 0 0 0 0 0 0 0 0 0 0 0 0 0 0 0 0 0 0 0 0 0 0
0 0 0 0 0 0 0 0 0 0 0 0 0 0 0 0 0 0 0 0 0 0 0 0 0 0 0 0 0 0 0 0 0 0 0 0 0 0 0 0 0 0 0
0 0 0 0 0 0 0 0 0 0 0 0 0 0 0 0 0 0 0 0 0 0 0 0 0 0 0 0 0 0 0 0 0 0 0 0 0 0 0 0 0 0 0
0 0 0 0 0 0 0 0 0 0 0 0 0 0 0 0 0 0 0 0 0 0 0 0 0 0 0 0 0 0 0 0 0 0 0 0 0 0 0 0 0 0 0
0 0 0 0 0 0 0 0 0 0 0 0 0 0 0 0 0 0 0 0 0 0 0 0 0 0 0 0 0 0 0 0 0 0 0 0 0 0 0 0 0 0 0
0 0 0 0 0 0 0 0 0 0 0 0 0 0 0 0 0 0 0 0 0 0 0 0 0 0 0 0 0 0 0 0 0 0 0 0 0 0 0 0 0 0 0
0 0 0 0 0 0 0 0 0 0 0 0 0 0 0 0 0 0 0 0 0 0 0 0 0 0 0 0 0 0 0 0 0 0 0 0 0 0 0 0 0 0 0
0 0 0 0 0 0 0 0 0 0 0 0 0 0 0 0 0 0 0 0 0 0 0 0 0 0 0 0 0 0 0 0 0 0 0 0 0 0 0 0 0 0 0
0 0 0 0 0 0 0 0 0 0 0 0 0 0 0 0 0 0 0 0 0 0 0 0 0 0 0 0 0 0 0 0 0 0 0 0 0 0 0 0 0 0 0
0 0 0 0 0 0 0 0 0 0 0 0 0 0 0 0 0 0 0 0 0 0 0 0 0 0 0 0 0 0 0 0 0 0 0 0 0 0 0 0 0 0 0
0 0 0 0 0 0 0 0 0 0 0 0 0 0 0 0 0 0 0 0 0 0 0 0 0 0 0 0 0 0 0 0 0 0 0 0 0 0 0 0 0 0 0
0 0 0 0 0 0 0 0 0 0 0 0 0 0 0 0 0 0 0 0 0 0 0 0 0 0 0 0 0 0 0 0 0 0 0 0 0 0 0 0 0 0 0
0 0 0 0 0 0 0 0 0 0 0 0 0 0 0 0 0 0 0 0 0 0 0 0 0 0 0 0 0 0 0 0 0 0 0 0 0 0 0 0 0 0 0
0 0 0 0 0 0 0 0 0 0 0 0 0 0 0 0 0 0 0 0 0 0 0 0 0 0 0 0 0 0 0 0 0 0 0 0 0 0 0 0 0 0 0
Height
5734 5731 5727 5723 5720 5716 5712 5709 5704 5700 5695 5690 5684 5678 5672 5665 5658 5651 5644 5636 5628 5620 5610 5601 5591 5581 5571 5560 5549 5539 5528 5515 5506 5512 5507 5496 5487 5481 5476 5472 5469 5466 5464
5724 5720 5716 5713 5709 5705 5701 5696 5692 5687 5681 5675 5669 5663 5656 5649 5641 5633 5625 5617 5608 5599 5588 5578 5567 5556 5545 5534 5523 5512 5502 5491 5480 5479 5481 5473 5465 5459 5455 5452 5449 5446 5444
5713 5709 5705 5701 5697 5693 5688 5683 5678 5673 5667 5660 5654 5647 5639 5631 5623 5614 5605 5596 5587 5576 5565 5554 5542 5530 5520 5508 5497 5487 5478 5469 5459 5454 5455 5452 5446 5441 5436 5434 5431 5429 5426
5702 5698 5694 5690 5685 5680 5675 5670 5664 5658 5652 5645 5638 5630 5622 5613 5604 5594 5585 5575 5565 5554 5542 5530 5518 5505 5494 5484 5474 5465 5456 5449 5442 5436 5434 5433 5429 5425 5420 5418 5416 5413 5411
5691 5687 5682 5677 5672 5667 5662 5656 5650 5643 5636 5629 5621 5613 5604 5594 5584 5574 5564 5554 5544 5533 5521 5508 5495 5483 5471 5461 5452 5445 5438 5432 5426 5421 5418 5415 5413 5409 5406 5402 5400 5398 5397
5679 5674 5669 5664 5659 5654 5648 5642 5635 5628 5621 5613 5604 5595 5586 5575 5564 5553 5541 5531 5521 5509 5497 5485 5473 5461 5451 5442 5434 5427 5421 5415 5410 5406 5403 5400 5397 5394 5391 5388 5385 5383 5383
5667 5662 5656 5651 5645 5639 5633 5626 5619 5612 5604 5596 5587 5577 5567 5556 5544 5532 5520 5508 5498 5485 5473 5463 5452 5442 5432 5425 5418 5412 5407 5401 5396 5391 5388 5386 5383 5380 5377 5374 5371 5369 5368
5654 5649 5643 5637 5632 5625 5618 5611 5604 5596 5587 5578 5568 5558 5547 5536 5523 5510 5498 5487 5476 5464 5452 5441 5432 5424 5415 5408 5403 5399 5394 5389 5383 5379 5375 5373 5369 5366 5363 5360 5358 5356 5356
5641 5635 5629 5623 5617 5610 5603 5595 5587 5578 5570 5560 5549 5538 5527 5516 5502 5489 5476 5466 5456 5445 5434 5423 5414 5407 5401 5394 5389 5385 5381 5377 5372 5367 5364 5360 5357 5354 5350 5347 5345 5343 5342
5628 5622 5616 5609 5602 5594 5587 5578 5569 5560 5551 5541 5531 5519 5507 5495 5482 5468 5455 5444 5436 5427 5418 5409 5400 5393 5387 5381 5375 5371 5367 5364 5360 5356 5353 5349 5346 5342 5339 5336 5333 5330 5329
5614 5608 5601 5594 5586 5578 5570 5561 5551 5542 5532 5522 5512 5501 5487 5474 5461 5448 5436 5424 5415 5409 5402 5395 5388 5381 5375 5369 5364 5359 5355 5351 5348 5345 5342 5338 5335 5332 5328 5325 5322 5319 5317
5600 5594 5587 5579 5570 5562 5553 5543 5533 5522 5512 5501 5490 5481 5468 5454 5442 5430 5419 5408 5398 5392 5387 5381 5375 5369 5363 5358 5353 5348 5344 5340 5336 5333 5330 5327 5324 5321 5318 5315 5312 5309 5307
5586 5578 5571 5563 5554 5544 5534 5524 5514 5502 5491 5480 5469 5459 5450 5437 5424 5412 5403 5394 5385 5378 5373 5368 5363 5357 5352 5347 5343 5338 5333 5329 5326 5323 5320 5317 5313 5310 5307 5305 5302 5300 5298
5570 5563 5554 5546 5537 5528 5517 5505 5494 5482 5470 5459 5448 5437 5428 5419 5407 5397 5389 5381 5374 5368 5362 5357 5352 5346 5341 5337 5333 5328 5324 5320 5316 5312 5309 5306 5303 5300 5297 5294 5292 5290 5288
5554 5546 5538 5528 5519 5510 5499 5487 5475 5463 5448 5437 5427 5416 5407 5400 5391 5381 5374 5368 5362 5356 5351 5347 5342 5337 5332 5327 5323 5318 5314 5310 5306 5302 5299 5296 5293 5290 5287 5285 5283 5281 5279
5538 5530 5520 5510 5500 5490 5480 5471 5459 5445 5433 5419 5406 5396 5388 5381 5374 5368 5361 5356 5350 5344 5339 5335 5331 5326 5321 5317 5313 5309 5305 5301 5297 5293 5289 5286 5283 5280 5278 5275 5273 5271 5270
5521 5512 5502 5492 5481 5470 5459 5448 5440 5432 5418 5404 5391 5381 5373 5366 5361 5355 5350 5345 5340 5334 5329 5325 5320 5316 5311 5307 5303 5299 5295 5291 5287 5284 5280 5277 5274 5271 5268 5266 5264 5262 5260
5503 5493 5482 5472 5461 5450 5438 5427 5416 5407 5401 5392 5380 5368 5360 5355 5349 5344 5339 5334 5330 5325 5320 5315 5310 5306 5302 5298 5294 5290 5286 5282 5278 5274 5271 5268 5265 5262 5259 5257 5254 5252 5251
5485 5474 5463 5452 5441 5429 5418 5408 5397 5388 5379 5372 5365 5357 5350 5345 5340 5334 5329 5324 5320 5315 5310 5306 5301 5297 5292 5288 5285 5281 5277 5273 5269 5266 5263 5259 5256 5253 5251 5248 5246 5243 5242
5466 5455 5443 5432 5421 5410 5399 5388 5379 5371 5363 5356 5350 5344 5339 5335 5331 5326 5320 5315 5310 5306 5301 5297 5292 5288 5284 5280 5276 5273 5269 5265 5261 5258 5255 5251 5248 5245 5243 5240 5237 5235 5233
5447 5436 5424 5412 5400 5390 5380 5371 5362 5355 5348 5343 5338 5333 5328 5324 5320 5316 5311 5306 5301 5297 5292 5288 5284 5280 5276 5272 5268 5265 5261 5257 5254 5250 5247 5244 5241 5238 5235 5232 5229 5227 5224
5426 5415 5404 5393 5382 5372 5363 5355 5347 5341 5335 5330 5327 5323 5318 5314 5310 5306 5301 5297 5292 5288 5284 5280 5276 5272 5269 5265 5261 5257 5254 5250 5246 5243 5239 5236 5233 5230 5227 5224 5221 5218 5215
5405 5395 5385 5375 5365 5356 5348 5341 5334 5329 5324 5320 5317 5313 5309 5305 5301 5297 5292 5288 5284 5280 5276 5272 5269 5265 5262 5258 5254 5250 5247 5243 5239 5236 5232 5229 5225 5222 5219 5215 5212 5209 5206
5387 5376 5367 5358 5350 5342 5335 5329 5323 5318 5314 5311 5307 5304 5300 5296 5292 5288 5284 5280 5276 5272 5269 5265 5262 5258 5255 5251 5247 5243 5240 5236 5233 5229 5225 5222 5218 5214 5211 5207 5204 5200 5197
5369 5360 5351 5343 5336 5329 5323 5318 5313 5309 5305 5302 5299 5295 5291 5288 5284 5280 5276 5273 5269 5266 5262 5259 5256 5252 5248 5245 5241 5237 5233 5229 5226 5222 5218 5214 5210 5206 5202 5199 5195 5191 5188
5353 5345 5337 5330 5324 5318 5313 5308 5304 5300 5297 5294 5290 5287 5283 5280 5276 5273 5270 5266 5263 5260 5256 5253 5249 5246 5242 5238 5234 5230 5226 5222 5218 5214 5210 5206 5202 5198 5194 5190 5186 5182 5178
Wind_Speed
41 42 42 43 44 45 46 47 49 50 52 55 57 59 62 64 66 68 71 73 75 77 79 82 84 86 88 89 91 92 92 92 93 88 84 81 78 75 72 69 68 67 67
43 44 44 45 46 47 48 50 51 53 55 57 60 62 64 67 69 72 74 76 78 81 83 85 87 89 90 90 90 89 88 85 84 81 74 69 66 64 62 61 59 58 58
45 45 46 47 48 49 50 52 54 56 58 60 62 65 67 70 72 75 77 79 82 84 86 87 89 90 89 88 86 84 80 77 74 71 64 60 58 56 55 54 53 52 52
46 47 47 48 49 51 53 54 56 58 60 62 65 68 71 73 75 78 80 82 84 86 87 88 88 88 86 83 79 75 71 68 65 62 58 54 52 51 51 50 49 49 49
48 49 49 50 51 53 55 57 59 61 63 65 68 71 74 76 78 81 83 84 85 86 87 86 85 82 79 76 71 67 63 60 58 56 53 51 48 47 47 48 47 46 45
49 50 51 52 54 56 58 60 61 63 66 69 72 74 76 78 81 83 85 86 87 87 85 83 80 76 71 67 63 60 57 55 53 52 50 48 46 45 45 45 44 43 42
51 52 53 55 56 58 60 62 64 66 69 72 74 76 78 80 82 84 85 86 86 84 82 78 74 68 64 60 56 53 51 50 50 49 47 45 44 43 43 43 42 41 40
52 53 55 57 58 60 62 64 67 70 72 75 77 78 80 82 83 84 85 85 83 80 77 72 66 60 56 53 50 48 47 46 45 45 44 43 42 42 42 42 41 40 38
53 55 57 58 60 62 65 67 70 73 75 77 79 80 82 82 83 84 83 82 79 74 69 63 59 54 51 49 47 45 43 42 42 42 41 41 40 40 41 41 41 40 38
55 56 58 60 63 66 68 70 73 75 77 79 80 82 83 83 82 82 81 79 74 68 61 55 52 49 47 45 45 43 41 40 40 39 38 38 38 38 39 39 39 39 37
56 58 60 63 66 68 71 73 75 77 79 80 81 82 83 82 80 78 76 72 67 60 54 49 46 45 43 42 42 41 41 39 38 36 36 36 36 36 36 36 37 37 35
58 60 63 66 68 71 73 75 77 79 81 82 83 82 81 79 77 73 69 64 59 54 49 46 44 42 41 40 40 39 38 37 36 35 35 34 35 35 34 34 34 34 33
60 63 65 68 70 73 75 78 79 81 83 83 83 82 79 76 72 67 62 56 52 49 46 43 42 40 39 38 38 37 36 36 36 35 35 34 35 34 33 32 32 32 31
63 66 68 71 73 75 77 80 81 83 83 83 82 80 76 71 66 60 54 49 46 44 42 40 39 38 38 37 36 35 35 35 35 35 34 34 34 33 32 31 30 30 29
66 68 71 73 76 78 79 81 82 83 83 82 80 77 72 66 59 53 49 45 42 41 39 37 37 36 35 35 35 34 34 34 34 34 34 33 32 31 30 30 29 29 29
69 71 74 76 78 80 81 82 81 81 79 78 75 71 66 60 53 47 44 41 40 39 38 37 36 35 34 33 33 33 32 32 32 32 32 32 31 30 30 30 30 29 29
72 74 77 79 81 82 83 83 81 77 75 72 68 63 59 53 47 43 41 39 38 38 37 36 35 34 33 33 32 32 31 31 31 31 30 30 29 29 29 29 29 29 28
75 77 80 82 83 83 83 82 80 77 71 65 60 55 51 45 41 40 39 37 36 36 36 36 34 33 32 32 31 31 30 30 30 29 28 28 28 28 28 27 27 27 27
78 81 82 83 83 83 82 80 76 72 66 59 52 47 43 39 37 37 38 37 36 35 35 34 33 32 31 31 30 29 29 28 28 27 27 27 27 27 26 26 26 26 26
81 82 83 84 83 82 79 75 70 65 59 53 46 41 38 35 34 34 35 36 35 34 33 32 31 30 30 29 29 28 28 27 27 27 26 26 26 26 25 25 25 25 25
83 83 83 83 81 77 73 68 64 58 52 46 40 37 36 34 33 33 33 33 33 32 31 30 29 28 28 28 27 27 27 26 26 26 26 25 25 25 25 26 26 26 26
83 82 81 78 75 70 66 61 57 51 45 40 35 34 34 34 33 33 32 32 31 30 29 28 27 27 26 27 27 26 26 26 26 25 25 25 26 26 26 27 27 27 27
81 79 75 71 67 63 59 54 49 44 39 36 33 32 32 32 32 31 30 30 29 28 27 26 26 25 26 26 26 25 25 25 25 25 25 25 26 26 27 27 27 27 28
76 72 69 64 60 57 52 47 42 38 35 33 31 31 31 31 30 29 28 28 27 26 25 25 24 24 25 25 25 25 25 25 25 26 26 26 26 27 27 27 27 28 28
69 66 62 58 54 51 46 41 37 35 32 30 30 30 30 29 28 27 26 26 25 24 24 24 23 24 24 25 25 25 25 25 26 26 27 27 27 28 28 28 28 28 28
62 59 56 52 49 45 40 37 34 31 30 29 29 28 28 27 26 25 24 24 24 24 23 23 23 24 24 25 25 25 25 26 26 27 27 27 27 28 28 28 29 29 30
Wind_Direction
297 296 295 294 293 293 292 293 293 294 294 295 296 297 298 299 299 300 301 301 301 302 302 302 302 301 301 300 300 299 298 297 295 295 293 291 289 287 285 284 282 281 279
297 296 295 294 294 293 294 294 295 296 296 297 298 299 300 300 301 302 302 303 303 303 304 304 303 303 302 301 300 299 298 297 296 295 294 291 289 288 286 285 283 282 280
296 296 295 295 294 295 295 296 297 298 299 299 300 301 302 302 303 304 304 305 305 305 305 305 305 304 303 302 300 299 298 296 296 295 295 292 290 288 286 285 284 283 282
296 296 295 295 296 296 297 298 299 299 300 301 302 303 304 304 305 305 306 306 307 307 307 306 305 304 303 301 300 298 297 296 295 295 294 292 290 288 287 286 285 284 283
296 296 296 296 297 298 298 299 300 301 302 303 304 305 305 306 306 307 307 307 307 307 307 306 305 304 302 301 299 298 297 296 295 294 293 292 291 288 287 287 286 284 283
296 296 296 297 298 299 300 301 302 302 303 304 305 306 307 307 308 308 308 308 309 308 308 307 305 303 302 300 299 297 297 296 295 294 293 293 291 289 289 288 287 285 283
296 296 297 298 299 300 301 302 303 303 304 305 306 307 308 309 309 309 309 309 310 309 308 307 305 303 301 299 298 297 296 296 295 294 294 293 292 291 290 289 288 287 285
296 296 298 299 300 301 302 303 303 304 306 307 308 309 309 310 310 310 310 310 310 309 308 307 305 303 301 299 298 297 296 295 294 294 294 294 293 292 291 290 289 288 287
296 297 299 300 301 302 303 304 305 306 307 308 309 310 311 311 311 311 310 310 310 309 308 307 305 304 302 300 299 298 297 296 294 294 294 294 293 292 291 290 290 289 288
297 299 300 301 301 303 304 305 306 307 309 310 311 311 312 312 312 311 311 311 310 309 308 306 305 304 302 301 300 299 298 297 295 295 295 294 294 293 292 291 290 290 289
298 299 300 301 303 304 305 306 308 309 310 311 312 312 313 313 312 312 311 310 310 309 308 306 305 304 302 302 301 301 300 298 297 296 295 295 294 294 292 291 290 289 289
300 301 302 303 304 306 307 308 309 310 311 312 312 313 313 313 312 311 310 309 309 308 308 307 306 305 303 302 302 301 301 300 299 298 298 297 296 295 293 291 290 288 288
301 302 304 305 306 308 309 310 311 311 312 312 313 313 313 313 311 310 309 309 308 307 307 307 307 305 304 303 303 302 301 300 299 299 298 298 297 296 294 292 290 288 286
303 304 305 307 308 309 310 311 312 312 312 313 313 313 313 312 311 309 308 307 306 305 306 306 306 305 304 304 303 302 301 301 301 300 299 298 297 296 294 292 290 288 286
305 306 307 308 309 310 311 312 312 313 313 313 313 313 313 312 311 309 308 307 307 306 306 306 306 305 304 303 303 302 301 301 302 301 300 299 297 296 294 292 290 288 286
306 307 308 309 310 311 311 312 313 313 313 313 313 312 312 312 311 309 308 308 308 308 308 308 307 306 305 304 303 302 302 302 303 302 301 299 297 295 294 292 290 288 287
307 308 309 310 311 311 312 312 312 313 313 312 312 311 310 310 309 308 307 308 309 308 309 309 309 307 306 305 304 304 303 303 303 303 302 300 298 297 295 292 290 288 287
308 309 310 311 311 311 312 312 313 313 313 312 310 309 308 308 308 307 307 308 309 309 309 309 309 308 307 307 306 305 305 304 303 303 302 302 301 300 298 295 292 290 288
309 310 310 311 311 312 312 312 312 312 312 311 310 307 306 306 306 306 307 308 309 309 309 309 309 309 308 308 307 307 307 306 304 304 303 303 303 302 300 298 295 293 290
309 310 310 311 312 312 312 312 312 311 311 310 309 307 305 305 305 306 307 308 309 309 309 310 309 309 309 309 309 308 308 307 306 305 304 303 303 302 301 299 297 295 292
310 310 311 311 312 312 312 311 311 311 310 309 308 306 306 307 307 308 308 308 309 309 309 309 309 309 310 310 310 309 308 308 307 306 304 303 303 302 301 300 298 295 293
310 311 311 312 312 312 312 311 311 310 309 308 306 306 307 308 309 310 310 309 310 310 310 310 310 310 311 311 311 310 309 309 308 307 306 305 303 302 301 300 298 296 293
310 311 311 312 312 312 311 311 310 309 308 306 306 306 307 308 309 310 309 310 310 310 310 310 310 311 312 312 312 311 310 310 310 309 308 307 305 304 302 301 300 298 296
310 311 311 311 311 311 311 310 309 308 306 305 306 307 308 309 310 310 309 310 311 311 310 310 311 312 313 313 313 312 311 310 310 310 309 308 307 306 305 304 303 301 299
310 310 310 311 311 311 311 310 308 307 305 305 306 308 309 309 310 310 310 311 311 311 311 312 313 313 313 314 314 314 313 312 311 311 310 310 309 308 307 306 305 304 302
310 310 310 310 310 310 309 309 307 305 304 305 307 308 309 309 310 310 311 312 312 312 312 312 313 314 314 314 315 315 314 313 313 313 312 312 311 310 308 307 306 304 303